Location: Libas
(9.8833°N, 125.9833°E)
Time: 22:00:49
(UTC+00:00)

H-2A R/B - Pass Details

Date: 27 October 2020
Orbit: 577 x 656 km, 98.5° (Epoch: 25 November)

Event Time Altitude Azimuth Distance (km) Brightness Sun altitude
Rises 20:45:19 0° 194° (SSW) 2,972 5.5 -10.6°
Reaches altitude 10° 20:47:59 10° 210° (SSW) 2,060 4.6 -9.9°
Maximum altitude 20:51:22 21° 259° (W) 1,456 3.4 -9.1°
Drops below altitude 10° 20:54:44 10° 308° (NW) 2,045 4.2 -8.3°
Enters shadow 20:56:38 - 321° (NW) 2,672 4.8 -7.8°
